[[{"header":{"parameterUnit":"m.s-1","parameterCategory":1,"la1":30.2991,"la2":30.254,"lo1":-89.0895,"lo2":-89.0444,"dy":0.0017,"dx":0.0017,"nx":28,"ny":28,"refTime":"2024-07-05T03:00:00:Z","depth":0,"parameterNumber":2,"parameterNumberName":"U-component_of_WINDS"},"data":[0,0,0,0,0,0,0,0,0,0,0,0,0,0,0,0,0,0,0,0,0,0,0,0,0,0,0,0,0,0,0,0,0,0,0,0,0,0,0,0,0,0,0,0,0,0,0,0,0,0,0,0,0,0,0,0,0,0,4.5547,4.5548,0,4.5643,4.5644,4.5646,4.5513,4.5508,4.5503,4.5499,4.5603,4.561,4.5617,0,0,0,0,0,0,0,0,0,0,0,0,0,4.5251,4.5257,4.5547,4.5548,4.5549,4.5643,4.5644,4.5646,4.5513,4.5508,4.5502,4.5496,4.5601,4.5609,4.5618,0,0,0,0,0,0,0,0,0,0,0,0,0,4.5367,4.5259,4.5547,4.5494,4.5491,4.5643,4.5645,4.5646,4.5515,4.5507,4.55,4.5494,4.5598,4.5609,4.5619,4.5829,0,0,4.5652,4.5657,0,0,0,0,0,0,0,0,4.5361,4.5378,4.5501,4.5498,4.5494,4.5558,4.5578,4.5708,4.5516,4.5506,4.5498,4.549,4.5595,4.5605,4.5639,4.5834,4.5839,4.5653,4.566,4.5665,4.5668,0,0,0,0,0,0,0,4.5353,4.5373,4.5585,4.5503,4.5499,4.5467,4.5476,4.5602,4.5589,4.5506,4.5497,4.551,4.5591,4.5629,4.5641,4.584,4.5653,4.5663,4.5669,4.5674,4.6209,4.6216,0,0,0,0,0,0,4.535,4.5367,4.5582,4.5588,4.5408,4.5478,4.5488,4.5545,4.5587,4.5587,4.5516,4.5503,4.5614,4.5628,4.5644,4.589,4.5664,4.5675,4.5681,4.6201,4.6211,4.6219,0,0,0,0,0,0,4.5344,4.5371,4.5578,4.5475,4.5499,4.5491,4.5556,4.5551,4.5588,4.5594,4.5592,4.5556,4.5609,4.5629,4.5783,4.5892,4.568,4.5689,4.6192,4.6204,4.6215,4.6385,0,0,0,0,0,0,4.5337,4.5369,4.5449,4.5478,4.5505,4.5715,4.5563,4.5558,4.5607,4.5591,4.5632,4.5632,4.5605,4.5767,4.5794,4.5903,4.5698,4.6182,4.6197,4.6211,4.637,4.6401,4.6428,0,0,0,0,0,4.5326,4.5495,4.5453,4.548,4.5603,4.5722,4.5737,4.5701,4.5616,4.5695,4.5699,4.5631,4.5876,4.5784,4.5813,4.5927,4.6175,4.6193,4.621,4.6357,4.6395,4.6427,0,0,0,0,0,0,4.5481,4.5498,4.5452,4.5634,4.5677,4.5699,4.5798,4.5743,4.5813,4.5796,4.575,4.576,4.5924,4.5941,4.5839,4.6131,4.6011,4.6035,4.6113,4.615,4.6178,4.6171,4.5707,0,0,0,0,0,4.5536,4.5629,4.5639,4.5799,4.5823,4.5807,4.5858,4.5825,4.5869,4.5887,4.5902,4.5948,4.6035,4.6094,4.6174,4.6372,4.6378,4.6464,4.6493,4.6517,4.6538,4.6641,4.6679,4.6276,4.6276,4.6275,0,0,4.5651,4.5672,4.5734,4.5831,4.586,4.5958,4.5824,4.5934,4.6006,4.5905,4.6049,4.6063,4.6111,4.6287,4.6365,4.6306,4.6651,4.6539,4.6558,4.6566,4.6663,4.6701,4.6735,4.6288,4.6285,4.6284,0,0,4.591,4.5936,4.6071,4.6102,4.6147,4.6135,4.6168,4.6198,4.6201,4.6346,4.6271,4.6357,4.6509,4.6545,4.6584,4.6854,4.6793,4.6882,4.7034,4.7135,4.7167,4.7195,4.7289,4.7324,4.6903,4.6904,4.6904,0,4.6048,4.6192,4.6148,4.6262,4.6306,4.6216,4.6352,4.6385,4.6456,4.6489,4.6421,4.6607,4.6633,4.6815,4.6881,4.6916,4.6951,4.6877,4.7165,4.7193,4.7218,4.7308,4.7344,4.6914,4.6913,4.6912,4.6911,0,4.6358,4.6459,4.6562,4.6629,4.6685,4.6811,4.6785,4.6848,4.6811,4.6806,4.6954,4.6982,4.7065,4.7106,4.7073,4.7283,4.7244,4.7173,4.7051,4.7268,4.7351,4.7385,4.6929,4.6925,4.6922,4.6919,0,0,4.6718,4.6757,4.6796,4.6824,4.6866,4.6944,4.7064,4.7143,4.7197,4.7248,4.7347,4.7476,4.7408,4.7452,4.7422,4.7511,4.772,4.7427,4.7427,4.7479,4.7952,4.8005,4.8045,4.768,4.7687,4.7692,4.7947,0,4.6975,4.7181,4.7144,4.7345,4.7436,4.7351,4.7455,4.7493,4.7492,4.757,4.7569,4.766,4.7564,4.759,4.7674,4.7677,4.7814,4.7658,4.7772,4.7777,4.7761,4.8089,4.8146,4.8386,4.7979,4.7985,4.7989,0,4.7303,4.7363,4.7573,4.7597,4.7634,4.7729,4.7797,4.7873,4.7914,4.7906,4.7954,4.7906,4.8026,4.7904,4.8068,4.7962,4.8006,4.8015,4.8023,4.8032,4.7895,4.8105,4.8461,4.8497,4.804,4.8036,4.8032,0,4.7542,4.7676,4.7818,4.7845,4.7878,4.7946,4.7964,4.7997,4.8046,4.8106,4.8137,4.8212,4.8253,4.8312,4.8285,4.8199,4.8453,4.833,4.845,4.8451,4.8507,4.8504,4.8874,4.8539,4.8538,4.8538,4.8537,0,4.7833,4.7964,4.7925,4.8012,4.8156,4.8112,4.8256,4.8263,4.8293,4.838,4.8312,4.8396,4.8356,4.8437,4.8417,4.8554,4.8574,4.8571,4.8564,4.8577,4.8577,4.8604,4.8586,4.8547,4.8545,4.8543,4.8542,0,4.8124,4.8104,4.8252,4.827,4.8278,4.8383,4.8399,4.848,4.8472,4.8583,4.8607,4.8596,4.8687,4.8666,4.8768,4.8754,4.8926,4.8899,4.8912,4.8905,4.9026,4.9014,4.9426,4.9477,4.911,4.9114,4.9117,0,4.831,4.8408,4.8436,4.8488,4.851,4.8596,4.8644,4.8605,4.8658,4.871,4.8785,4.887,4.8935,4.9085,4.9087,4.9163,4.9136,4.9275,4.9147,4.9155,4.9136,4.9129,4.9138,4.93,4.9305,4.9308,4.9311,0,4.8641,4.8625,4.8697,4.8766,4.8825,4.8877,4.8923,4.897,4.8934,4.8998,4.9089,4.9139,4.924,4.9325,4.9394,4.9413,4.9356,4.9351,4.9382,4.9395,4.9397,4.9396,4.8979,4.9342,4.9338,4.9336,4.9335,4.9333,4.8884,4.8966,4.8998,4.9079,4.9109,4.9153,4.9229,4.923,4.9304,4.9382,4.9354,4.9458,4.9494,4.9581,4.9608,4.9689,4.9636,4.9683,4.9694,4.9706,4.972,4.9386,4.9702,4.9701,4.97,4.9699,4.9698,0,4.921,4.9225,4.9301,4.9366,4.943,4.9369,4.9416,4.9474,4.9565,4.9602,4.9667,4.977,4.9851,4.9858,4.9934,4.9997,4.9973,5.0019,5.0013,5.0018,4.9763,4.9727,5.0037,5.0037,5.0037,5.0036,5.0036,5.0036,4.9387,4.9522,4.9509,4.9658,4.9672,4.9771,4.9803,4.9843,4.9872,4.999,5.0056,5.0059,5.0084,5.0161,5.0232,5.0232,5.0262,5.0317,5.0308,5.007,5.0036,5.0004,4.9969,5.0325,5.0325,5.0555,5.0557,5.0558]},{"header":{"parameterUnit":"m.s-1","parameterCategory":1,"la1":30.2991,"la2":30.254,"lo1":-89.0895,"lo2":-89.0444,"dy":0.0017,"dx":0.0017,"nx":28,"ny":28,"refTime":"2024-07-05T03:00:00:Z","depth":0,"parameterNumber":3,"parameterNumberName":"V-component_of_WINDS"},"data":[0,0,0,0,0,0,0,0,0,0,0,0,0,0,0,0,0,0,0,0,0,0,0,0,0,0,0,0,0,0,0,0,0,0,0,0,0,0,0,0,0,0,0,0,0,0,0,0,0,0,0,0,0,0,0,0,0,0,0.6765,0.6766,0,0.6794,0.6794,0.6795,0.6802,0.6802,0.6802,0.6802,0.6832,0.6833,0.6834,0,0,0,0,0,0,0,0,0,0,0,0,0,0.6715,0.6716,0.6765,0.6766,0.6766,0.6794,0.6794,0.6795,0.6802,0.6802,0.6802,0.6802,0.6831,0.6833,0.6834,0,0,0,0,0,0,0,0,0,0,0,0,0,0.674,0.6716,0.6765,0.6773,0.6774,0.6794,0.6794,0.6795,0.6802,0.6802,0.6802,0.6802,0.6831,0.6832,0.6834,0.6848,0,0,0.6838,0.6839,0,0,0,0,0,0,0,0,0.6738,0.6742,0.6771,0.6772,0.6774,0.6794,0.6788,0.6813,0.6802,0.6792,0.6802,0.6801,0.682,0.6822,0.6828,0.685,0.6851,0.6838,0.6839,0.684,0.684,0,0,0,0,0,0,0,0.6737,0.674,0.6777,0.6772,0.6773,0.6775,0.6778,0.6793,0.6807,0.6793,0.6793,0.6796,0.682,0.6827,0.6829,0.6851,0.6838,0.684,0.6841,0.6841,0.6884,0.6884,0,0,0,0,0,0,0.6734,0.6739,0.6776,0.6778,0.6755,0.6776,0.6779,0.6788,0.6807,0.6809,0.6797,0.6797,0.6824,0.6827,0.683,0.6847,0.684,0.6841,0.6842,0.6883,0.6884,0.6884,0,0,0,0,0,0,0.6733,0.6737,0.6775,0.6758,0.6763,0.6777,0.6786,0.6789,0.6795,0.681,0.6812,0.6801,0.6824,0.6828,0.6843,0.6848,0.6842,0.6843,0.6883,0.6884,0.6884,0.6881,0,0,0,0,0,0,0.6731,0.6736,0.6743,0.6758,0.6764,0.6788,0.6787,0.6789,0.6798,0.6798,0.6814,0.6817,0.6824,0.6841,0.6844,0.685,0.6844,0.6883,0.6883,0.6884,0.6881,0.6881,0.6882,0,0,0,0,0,0.6729,0.6741,0.6743,0.6747,0.6772,0.6788,0.6791,0.68,0.6798,0.6804,0.6813,0.6816,0.6846,0.6842,0.6847,0.6852,0.6883,0.6883,0.6884,0.688,0.6881,0.6882,0,0,0,0,0,0,0.6727,0.6744,0.6746,0.6763,0.6774,0.6789,0.6797,0.68,0.6812,0.6812,0.6822,0.6825,0.684,0.6847,0.6843,0.6866,0.6864,0.6866,0.686,0.6861,0.6862,0.686,0.6846,0,0,0,0,0,0.6728,0.674,0.6754,0.6768,0.6773,0.6784,0.6791,0.6796,0.6808,0.6813,0.6823,0.6834,0.6846,0.6854,0.6866,0.6881,0.6884,0.6887,0.6887,0.6888,0.6889,0.6896,0.6897,0.6886,0.6886,0.6886,0,0,0.6731,0.6742,0.6749,0.6767,0.6777,0.6788,0.6788,0.6801,0.6809,0.6815,0.683,0.6837,0.685,0.6865,0.6872,0.6872,0.6892,0.6888,0.6889,0.689,0.6897,0.6898,0.6899,0.6886,0.6886,0.6886,0,0,0.6743,0.6752,0.6764,0.6772,0.6786,0.6792,0.6795,0.6809,0.6814,0.6829,0.6833,0.6843,0.6864,0.6872,0.6879,0.689,0.6893,0.6894,0.6896,0.6903,0.6904,0.6905,0.6908,0.6909,0.6895,0.6895,0.6895,0,0.6745,0.6763,0.677,0.6781,0.6789,0.6794,0.6805,0.6813,0.6829,0.6834,0.6833,0.6858,0.6867,0.6883,0.6885,0.6891,0.6894,0.6893,0.6903,0.6904,0.6905,0.6908,0.6909,0.6895,0.6895,0.6895,0.6895,0,0.6764,0.6776,0.6784,0.6798,0.6806,0.6818,0.6826,0.6834,0.6837,0.6844,0.6857,0.6868,0.6881,0.6885,0.689,0.6901,0.6901,0.6901,0.69,0.6906,0.6909,0.691,0.6895,0.6895,0.6895,0.6895,0,0,0.6777,0.6793,0.6796,0.6802,0.6815,0.6824,0.6835,0.6847,0.6853,0.6863,0.6872,0.6888,0.6888,0.6896,0.69,0.6906,0.6913,0.6906,0.6906,0.6906,0.6925,0.6924,0.6925,0.6914,0.6915,0.6915,0.6923,0,0.679,0.6809,0.6815,0.6831,0.6841,0.6844,0.6853,0.6862,0.6868,0.6877,0.6883,0.6894,0.6893,0.6898,0.6904,0.6911,0.6917,0.691,0.6922,0.6922,0.6919,0.6927,0.6927,0.6935,0.6925,0.6925,0.6925,0,0.6808,0.6817,0.6834,0.6844,0.6849,0.6857,0.6867,0.6876,0.6885,0.6888,0.6896,0.6899,0.691,0.6907,0.6921,0.6916,0.6921,0.6925,0.6925,0.6927,0.6924,0.6929,0.6938,0.6939,0.6927,0.6927,0.6927,0,0.6815,0.6831,0.6843,0.6848,0.686,0.6866,0.6871,0.688,0.6886,0.6895,0.6898,0.6909,0.6914,0.6921,0.6927,0.6925,0.694,0.6938,0.6942,0.6942,0.6946,0.6946,0.6956,0.6949,0.6949,0.6949,0.6949,0,0.6828,0.6839,0.6846,0.6853,0.6864,0.6869,0.688,0.6885,0.6892,0.69,0.6904,0.6911,0.6918,0.6926,0.693,0.694,0.6942,0.6945,0.6946,0.6945,0.6944,0.6949,0.6948,0.6949,0.6949,0.6949,0.6949,0,0.6838,0.6844,0.6857,0.6866,0.6869,0.6876,0.6884,0.689,0.6895,0.6905,0.6907,0.6915,0.6924,0.693,0.6942,0.6945,0.6955,0.6956,0.6952,0.6952,0.6956,0.6955,0.6969,0.6971,0.6963,0.6963,0.6963,0,0.6847,0.6854,0.6864,0.6869,0.6874,0.6882,0.6888,0.6893,0.6898,0.6908,0.6913,0.6922,0.693,0.6944,0.695,0.6959,0.696,0.6964,0.6961,0.6959,0.6959,0.6959,0.6959,0.6964,0.6964,0.6964,0.6965,0,0.6861,0.6863,0.6871,0.6879,0.6885,0.6892,0.6899,0.6903,0.6909,0.6915,0.6924,0.6929,0.694,0.6949,0.6957,0.6962,0.6964,0.6965,0.6966,0.6965,0.6962,0.6963,0.6953,0.6965,0.6965,0.6965,0.6965,0.6965,0.687,0.6876,0.6883,0.6891,0.6897,0.6902,0.6908,0.6913,0.692,0.6929,0.6931,0.694,0.6947,0.6958,0.6963,0.697,0.6969,0.6972,0.6972,0.6972,0.6972,0.6961,0.6971,0.6971,0.6971,0.6971,0.6971,0,0.6884,0.6888,0.6895,0.6904,0.691,0.691,0.6917,0.6922,0.6929,0.6935,0.6942,0.6951,0.6958,0.6964,0.6972,0.6976,0.6977,0.6978,0.6977,0.6978,0.6972,0.697,0.6977,0.6977,0.6977,0.6977,0.6977,0.6977,0.6892,0.6902,0.6904,0.6915,0.6919,0.6927,0.6931,0.6936,0.694,0.695,0.6956,0.6959,0.6965,0.6972,0.6979,0.698,0.6983,0.6983,0.6985,0.698,0.6979,0.6978,0.6976,0.6984,0.6984,0.699,0.699,0.699]}]]